FENGYUN 1C DEB

Satellite information

Favourite Embed

Satellite Type and Status

DEBRISIN ORBIT

Key statistics

Satellite FENGYUN 1C DEB at a glance.

Uptime

9656

Days in orbit

Revolutions

≈ 14.7

Per day

Orbit

SSO

Sun Synchronous Orbit

Inclination

99.3

Latest

Satellite identification and parameters

Extended collection of information and parameters for FENGYUN 1C DEB.

Object identification

Identified? True

Debris? True

Object name: FENGYUN 1C DEB

International designator: 1999-025CGF

Object number (NORAD): 31780

Object ID (CCSDS): 31780

Country: PEOPLES REPUBLIC OF CHINA (PRC)

Current information (Y/N): Y

RCS size: SMALL

Orbital parameters

Period: 98.027 minutes

Inclination: 99.2814 deg

SMA: 7042.458 km

Apoapsis: 770.651 km

Periapsis: 557.994 km

RAAN: 72.8013 deg

Eccentricy: 0.01509822

Argument of periapsis: 232.5399 deg

Mean anomaly: 126.199 deg

Mean motion: 14.68981731 rev/day

Mean motion (dot): 0.00004501 rev/day2

B* drag term: 0.00065555363 1/REarth

Two-line elements (TLE)

Creation date: Oct. 15, 2025, 6:23 p.m.

Reference frame: TEME

Reference center: EARTH

Epoch: Oct. 15, 2025, 3:30 a.m. UTC

TLE line 0: 0 FENGYUN 1C DEB

TLE line 1: 1 31780U 99025CGF 25288.14643091 .00004501 00000-0 65555-3 0 9996

TLE line 2: 2 31780 99.2814 72.8013 0150982 232.5399 126.1990 14.68981731976371

Live tracking on map

Real-time ground track for satellite FENGYUN 1C DEB.

In-orbit conjunctions

A list of the most updated potential collisions computed for object FENGYUN 1C DEB.

Target Orbit TCA Probability of collision Miss distance Type
THORAD AGENA D DEB LEO 2024-11-09 02:12:49 0.000100991 340.0 (m) DEBRIS
COSMOS 2251 DEB LEO 2024-11-01 11:23:28 0.000247426 53.0 (m) DEBRIS
SL-14 R/B LEO 2024-09-26 19:06:29 0.0007517105 856.0 (m) ROCKET BODY
METEOR 2-1 DEB LEO 2024-09-26 13:20:53 0.0005184217 229.0 (m) DEBRIS

Associated space launch

Chinese polar orbiting meteorological satellite

FENGYUN 1C DEB was lifted into orbit during the mission ‘Long March 4B | Feng Yun 1C’, on board a Long March 4B space rocket.

The launch took place on May 10, 1999, 1:33 a.m. from Launch Complex 7.

For more information about the launch, click the button.

Launch to space Long March 4B | Feng Yun 1C
Long March 4B | Feng Yun 1C

Agency: N/A

Status: Launch Successful

Launch date: May 10, 1999, 1:33 a.m. UTC

Rocket: Long March 4B

Launch pad: Launch Complex 7

Location: Taiyuan Satellite Launch Center, People's Republic of China

...

Latest news about this satellite

There are no fresh news available about this satellite. Check back as we update our databases every day.


Newsletter sign-up

Weekly statistics, charts and insights to help you stay on top of the space industry.